#datetime,meter,power
2022-01-16T00:00:00,05,2.35
2022-01-16T00:01:00,05,2.36
2022-01-16T00:02:00,05,2.36
2022-01-16T00:03:00,05,2.32
2022-01-16T00:04:00,05,2.31
2022-01-16T00:05:00,05,2.31
2022-01-16T00:06:00,05,2.40
2022-01-16T00:07:00,05,2.36
2022-01-16T00:08:00,05,2.37
2022-01-16T00:09:00,05,2.34
2022-01-16T00:10:00,05,3.21
2022-01-16T00:11:00,05,3.21
2022-01-16T00:12:00,05,3.43
2022-01-16T00:13:00,05,3.39
2022-01-16T00:14:00,05,2.32
2022-01-16T00:15:00,05,2.11
2022-01-16T00:16:00,05,2.28
2022-01-16T00:17:00,05,2.27
2022-01-16T00:18:00,05,2.29
2022-01-16T00:19:00,05,2.27
2022-01-16T00:20:00,05,2.35
2022-01-16T00:21:00,05,2.31
2022-01-16T00:22:00,05,2.32
2022-01-16T00:23:00,05,2.32
2022-01-16T00:24:00,05,2.35
2022-01-16T00:25:00,05,2.41
2022-01-16T00:26:00,05,2.40
2022-01-16T00:27:00,05,2.43
2022-01-16T00:28:00,05,2.80
2022-01-16T00:29:00,05,2.96
2022-01-16T00:30:00,05,2.99
2022-01-16T00:31:00,05,2.89
2022-01-16T00:32:00,05,2.88
2022-01-16T00:33:00,05,2.46
2022-01-16T00:34:00,05,2.90
2022-01-16T00:35:00,05,2.87
2022-01-16T00:36:00,05,2.28
2022-01-16T00:37:00,05,2.74
2022-01-16T00:38:00,05,2.74
2022-01-16T00:39:00,05,2.07
2022-01-16T00:40:00,05,2.53
2022-01-16T00:41:00,05,2.53
2022-01-16T00:42:00,05,2.07
2022-01-16T00:43:00,05,2.07
2022-01-16T00:44:00,05,2.10
2022-01-16T00:45:00,05,2.10
2022-01-16T00:46:00,05,2.41
2022-01-16T00:47:00,05,2.35
2022-01-16T00:48:00,05,2.35
2022-01-16T00:49:00,05,2.36
2022-01-16T00:50:00,05,2.35
2022-01-16T00:51:00,05,2.34
2022-01-16T00:52:00,05,2.34
2022-01-16T00:53:00,05,2.52
2022-01-16T00:54:00,05,2.72
2022-01-16T00:55:00,05,2.50
2022-01-16T00:56:00,05,2.50
2022-01-16T00:57:00,05,2.50
2022-01-16T00:58:00,05,2.50
2022-01-16T00:59:00,05,2.54
2022-01-16T01:00:00,05,2.52
2022-01-16T01:01:00,05,2.52
2022-01-16T01:02:00,05,2.52
2022-01-16T01:03:00,05,2.31
2022-01-16T01:04:00,05,2.34
2022-01-16T01:05:00,05,2.28
2022-01-16T01:06:00,05,2.15
2022-01-16T01:07:00,05,2.15
2022-01-16T01:08:00,05,1.94
2022-01-16T01:09:00,05,2.08
2022-01-16T01:10:00,05,2.16
2022-01-16T01:11:00,05,2.13
2022-01-16T01:12:00,05,2.12
2022-01-16T01:13:00,05,2.10
2022-01-16T01:14:00,05,2.10
2022-01-16T01:15:00,05,2.09
2022-01-16T01:16:00,05,2.34
2022-01-16T01:17:00,05,2.34
2022-01-16T01:18:00,05,2.34
2022-01-16T01:19:00,05,2.32
2022-01-16T01:20:00,05,2.34
2022-01-16T01:21:00,05,2.33
2022-01-16T01:22:00,05,2.52
2022-01-16T01:23:00,05,2.50
2022-01-16T01:24:00,05,2.49
2022-01-16T01:25:00,05,2.48
2022-01-16T01:26:00,05,2.49
2022-01-16T01:27:00,05,2.49
2022-01-16T01:28:00,05,2.49
2022-01-16T01:29:00,05,2.33
2022-01-16T01:30:00,05,2.33
2022-01-16T01:31:00,05,2.32
2022-01-16T01:32:00,05,2.32
2022-01-16T01:33:00,05,2.44
2022-01-16T01:34:00,05,2.20
2022-01-16T01:35:00,05,2.42
2022-01-16T01:36:00,05,2.41
2022-01-16T01:37:00,05,2.19
2022-01-16T01:38:00,05,2.12
2022-01-16T01:39:00,05,2.26
2022-01-16T01:40:00,05,2.28
2022-01-16T01:41:00,05,2.08
2022-01-16T01:42:00,05,2.06
2022-01-16T01:43:00,05,2.06
2022-01-16T01:44:00,05,2.04
2022-01-16T01:45:00,05,2.06
2022-01-16T01:46:00,05,2.05
2022-01-16T01:47:00,05,2.24
2022-01-16T01:48:00,05,2.22
2022-01-16T01:49:00,05,2.19
2022-01-16T01:50:00,05,2.40
2022-01-16T01:51:00,05,2.37
2022-01-16T01:52:00,05,2.18
2022-01-16T01:53:00,05,2.37
2022-01-16T01:54:00,05,2.16
2022-01-16T01:55:00,05,2.39
2022-01-16T01:56:00,05,2.38
2022-01-16T01:57:00,05,2.37
2022-01-16T01:58:00,05,2.35
2022-01-16T01:59:00,05,2.32
2022-01-16T02:00:00,05,2.29
2022-01-16T02:01:00,05,1.92
2022-01-16T02:02:00,05,2.09
2022-01-16T02:03:00,05,1.92
2022-01-16T02:04:00,05,2.12
2022-01-16T02:05:00,05,2.10
2022-01-16T02:06:00,05,2.16
2022-01-16T02:07:00,05,2.14
2022-01-16T02:08:00,05,2.14
2022-01-16T02:09:00,05,1.92
2022-01-16T02:10:00,05,1.90
2022-01-16T02:11:00,05,2.12
2022-01-16T02:12:00,05,2.03
2022-01-16T02:13:00,05,2.25
2022-01-16T02:14:00,05,2.25
2022-01-16T02:15:00,05,2.23
2022-01-16T02:16:00,05,2.44
2022-01-16T02:17:00,05,2.23
2022-01-16T02:18:00,05,2.24
2022-01-16T02:19:00,05,2.23
2022-01-16T02:20:00,05,2.22
2022-01-16T02:21:00,05,2.24
2022-01-16T02:22:00,05,2.28
2022-01-16T02:23:00,05,2.27
2022-01-16T02:24:00,05,1.89
2022-01-16T02:25:00,05,1.88
2022-01-16T02:26:00,05,1.88
2022-01-16T02:27:00,05,1.84
2022-01-16T02:28:00,05,1.85
2022-01-16T02:29:00,05,1.73
2022-01-16T02:30:00,05,1.74
2022-01-16T02:31:00,05,1.73
2022-01-16T02:32:00,05,1.74
2022-01-16T02:33:00,05,1.74
2022-01-16T02:34:00,05,1.75
2022-01-16T02:35:00,05,1.98
2022-01-16T02:36:00,05,1.97
2022-01-16T02:37:00,05,1.93
2022-01-16T02:38:00,05,1.94
2022-01-16T02:39:00,05,1.92
2022-01-16T02:40:00,05,1.98
2022-01-16T02:41:00,05,2.33
2022-01-16T02:42:00,05,2.32
2022-01-16T02:43:00,05,2.31
2022-01-16T02:44:00,05,2.32
2022-01-16T02:45:00,05,2.31
2022-01-16T02:46:00,05,2.27
2022-01-16T02:47:00,05,2.27
2022-01-16T02:48:00,05,1.88
2022-01-16T02:49:00,05,1.88
2022-01-16T02:50:00,05,1.83
2022-01-16T02:51:00,05,1.81
2022-01-16T02:52:00,05,1.81
2022-01-16T02:53:00,05,1.80
2022-01-16T02:54:00,05,1.81
2022-01-16T02:55:00,05,1.80
2022-01-16T02:56:00,05,2.01
2022-01-16T02:57:00,05,2.02
2022-01-16T02:58:00,05,2.02
2022-01-16T02:59:00,05,2.06
2022-01-16T03:00:00,05,2.07
2022-01-16T03:01:00,05,1.90
2022-01-16T03:02:00,05,1.88
2022-01-16T03:03:00,05,1.88
2022-01-16T03:04:00,05,1.87
2022-01-16T03:05:00,05,1.87
2022-01-16T03:06:00,05,1.86
2022-01-16T03:07:00,05,1.87
2022-01-16T03:08:00,05,1.87
2022-01-16T03:09:00,05,1.87
2022-01-16T03:10:00,05,1.71
2022-01-16T03:11:00,05,1.73
2022-01-16T03:12:00,05,1.72
2022-01-16T03:13:00,05,1.69
2022-01-16T03:14:00,05,1.76
2022-01-16T03:15:00,05,1.77
2022-01-16T03:16:00,05,1.76
2022-01-16T03:17:00,05,1.76
2022-01-16T03:18:00,05,1.76
2022-01-16T03:19:00,05,1.69
2022-01-16T03:20:00,05,1.71
2022-01-16T03:21:00,05,1.69
2022-01-16T03:22:00,05,1.90
2022-01-16T03:23:00,05,2.03
2022-01-16T03:24:00,05,2.19
2022-01-16T03:25:00,05,2.14
2022-01-16T03:26:00,05,2.12
2022-01-16T03:27:00,05,2.12
2022-01-16T03:28:00,05,2.12
2022-01-16T03:29:00,05,2.12
2022-01-16T03:30:00,05,2.11
2022-01-16T03:31:00,05,2.10
2022-01-16T03:32:00,05,2.12
2022-01-16T03:33:00,05,1.93
2022-01-16T03:34:00,05,1.73
2022-01-16T03:35:00,05,1.74
